This is the latest recevied weather packets stored in our database for station/object WX5KDM. If no packets are shown the sender has not sent any weather packets the latest 10 day(s).
| Time | Temp. | Humidity | Pressure | Rain* | Wind** | Luminosity | Snow |
|---|---|---|---|---|---|---|---|
| 1788366351 | 34.44° C | 54% | 1019.7 hPa | 0 mm | - | - | - |
| 1788366047 | 34.44° C | 55% | 1019.7 hPa | 0 mm | - | - | - |
| 1788365747 | 34.44° C | 55% | 1019.6 hPa | 0 mm | - | - | - |
| 1788365443 | 35° C | 55% | 1019.7 hPa | 0 mm | - | - | - |
| 1788365138 | 34.44° C | 56% | 1019.6 hPa | 0 mm | - | - | - |
| 1788364833 | 33.89° C | 59% | 1019.8 hPa | 0 mm | - | - | - |
| 1788364527 | 33.89° C | 58% | 1019.8 hPa | 0 mm | - | - | - |
| 1788364225 | 34.44° C | 58% | 1019.8 hPa | 0 mm | - | - | - |
| 1788363920 | 34.44° C | 57% | 1019.9 hPa | 0 mm | - | - | - |
| 1788363615 | 33.89° C | 57% | 1019.8 hPa | 0 mm | - | - | - |
| 1788363313 | 33.33° C | 59% | 1019.9 hPa | 0 mm | - | - | - |
| 1788363009 | 33.33° C | 59% | 1019.6 hPa | 0 mm | - | - | - |
| 1788362706 | 33.33° C | 61% | 1019.8 hPa | 0 mm | - | - | - |
| 1788362400 | 32.78° C | 61% | 1019.7 hPa | 0 mm | - | - | - |
| 1788362096 | 32.78° C | 61% | 1019.7 hPa | 0 mm | - | - | - |
| 1788361791 | 32.22° C | 60% | 1019.9 hPa | 0 mm | - | - | - |
| 1788361487 | 32.22° C | 62% | 1019.6 hPa | 0 mm | - | - | - |
| 1788361186 | 32.22° C | 61% | 1019.7 hPa | 0 mm | - | - | - |
| 1788360881 | 32.22° C | 60% | 1019.5 hPa | 0 mm | - | - | - |
| 1788360576 | 31.67° C | 64% | 1019.6 hPa | 0 mm | - | - | - |
| 1788360272 | 31.67° C | 64% | 1019.6 hPa | 0 mm | - | - | - |
| 1788359971 | 31.67° C | 64% | 1019.8 hPa | 0 mm | - | - | - |
| 1788359666 | 31.67° C | 64% | 1019.5 hPa | 0 mm | - | - | - |
| 1788359363 | 32.22° C | 64% | 1019.7 hPa | 0 mm | - | - | - |
| 1788359059 | 31.67° C | 65% | 1019.8 hPa | 0 mm | - | - | - |
* Rain latest hour (hover to see other rain measurements)
** Current wind speed in m/s (hover to see current wind gust speed)